Regional Weather Roundup
Issued by NWS Jackson, KY

Home | Current Version | Previous Version | Text Only | Print | Product List | Glossary Off
Versions: 1 2 3 4 5 6 7 8 9 10 11 12 13 14 15 16 17 18 19 20 21 22 23 24 25 26

000
ASUS43 KJKL 232110
RWRJKL

EAST KENTUCKY HOURLY WEATHER ROUNDUP
NATIONAL WEATHER SERVICE JACKSON KY
500 PM EDT SUN APR 23 2017

NOTE: "FAIR" INDICATES FEW OR NO CLOUDS BELOW 12,000 FEET WITH
NO SIGNIFICANT WEATHER AND/OR OBSTRUCTIONS TO VISIBILITY.

* THESE REPORTS ARE NOT UNDER NWS QUALITY CONTROL AND MAY NOT
  REPORT WEATHER SUCH AS PRECIPITATION AND FOG.

KYZ079-080-083-085-087-088-110-112-115-119-120-232200
...EASTERN KENTUCKY...

CITY           SKY/WX    TMP DP  RH WIND       PRES   REMARKS
JACKSON        RAIN      51  50  96 VRB5      29.91S FOG
LONDON         RAIN      51  49  92 NE9       29.88S FOG
SOMERSET*      LGT RAIN  50  50 100 NE14G24   29.86F
MONTICELLO*    LGT RAIN  51  50  96 NE14G24   29.85F
WILLIAMSBURG*  CLOUDY    52  52 100 N10G17    29.85F
MIDDLESBORO*   RAIN      54  54 100 CALM      29.86S
HARLAN APT*    CLOUDY    54  52  94 NE5       29.85R
PIKE CO APT*   LGT RAIN  51  51 100 E7        29.92S
BIG SANDY APT* RAIN      52  52 100 E8        29.93S
MOREHEAD APT*  MOCLDY    55  45  67 VRB7      29.96F
ASHLAND*       CLOUDY    59  46  63 E3        29.95R
$$

KYZ035-036-041-042-044-050-067-078-099-232200
...CENTRAL KENTUCKY...

CITY           SKY/WX    TMP DP  RH WIND       PRES   REMARKS
MT STERLING*   DRIZZLE   54  46  76 E10       29.95F
FLEMING/MASON* CLOUDY    57  46  65 E8        29.96F
DANVILLE*      LGT RAIN  50  48  93 NE5       29.92S
LEXINGTON      CLOUDY    55  48  77 NE14      29.93S
FRANKFORT      CLOUDY    58  44  60 N5        29.92F
LOUISVILLE     CLOUDY    61  41  47 NE13      29.92F
LEBANON*         N/A     50  48  93 N8        29.91S
GLASGOW*       DRIZZLE   51  51 100 NE10G16   29.87F
BOWLING GREEN  LGT RAIN  54  51  90 NE10      29.88F
$$

KYZ091>093-OHZ055-061-077-WVZ005-015-034-035-042-232200
...SOUTHERN OHIO/WEST VIRGINIA...

CITY           SKY/WX    TMP DP  RH WIND       PRES   REMARKS
COVINGTON      CLOUDY    63  35  35 NE14      29.95F
COLUMBUS       PTSUNNY   69  34  27 NE9       29.97S
DAYTON         CLOUDY    67  31  26 NE16      29.98F
WILMINGTON     PTSUNNY   62  37  39 NE13      29.97S
HUNTINGTON     CLOUDY    56  48  74 E12       29.95F
CHARLESTON     CLOUDY    57  50  77 CALM      29.96F
PINEVILLE*     RAIN      50  48  92 MISG      30.02S
BECKLEY        LGT RAIN  47  44  90 E9        29.99F FOG
LOGAN CO APT*  CLOUDY    52  50  93 CALM      29.95F
$$

VAZ002-007-008-TNZ017-027-036-066-071-232200
...SOUTHWEST VIRGINIA/EAST TENNESSEE...

CITY           SKY/WX    TMP DP  RH WIND       PRES   REMARKS
WISE*          RAIN      50  50 100 CALM      29.91S
JONESVILLE*    LGT RAIN  54  52  94 E8        29.87S
ABINGDON*      LGT RAIN  49  47  95 E18       29.89F
BRISTOL        CLOUDY    50  48  93 NE6       29.87F
MORRISTOWN*    PTCLDY    54  54 100 E13G18    29.80R FOG
SEVIERVILLE*   MOCLDY    55  54  94 VRB7      29.78R
KNOXVILLE      RAIN      57  55  93 N15       29.78R FOG
LAFOLLETTE*    CLOUDY    55  55 100 E7        29.86R
OAK RIDGE      RAIN      57  54  89 VRB6      29.81R FOG
CROSSVILLE     CLOUDY    54  52  93 NE14      29.78F
NASHVILLE      LGT RAIN  52  50  93 N8        29.84R
$$

...KEY TO REMARKS...
VSB - VISIBILITY IN MILES
WCI - WIND CHILL INDEX
HX  - HEAT INDEX

$$




USA.gov is the U.S. government's official web portal to all federal, state and local government web resources and services.